Погода в Новолавеле

Россия / Архангельская область     63°36′48″N   45°31′21″E
темп.,
°C
ветер,
м/с
пор.,
м/с
влажн.,
%
обл.,
%
осадки,
мм/ч
давл.,
гПа
погр.,
м
13 мая, чт
чт1300:00+15ююз22655 0.0 102316
03:00+13ююз22754 0.0 102331
06:00+17ю26600 0.0 1022205
09:00+22ююз46400 0.0 1021725
12:00+25юз46245 0.0 10201831
15:00+26юз57259 0.0 10192373
18:00+25зюз253376 0.0 1017487
21:00+18ю265781 0.0 1016108
14 мая, пт
пт1400:00+16ююз246534 0.0 101676
03:00+14ю23765 0.1 101550
06:00+18ю3865100 0.1 1014267
09:00+21ююз575397 0.1 10141025
12:00+20юз4665100 1.1 10141114
15:00+20юз585592 1.9 10131631
18:00+21з384328 0.0 10132013
21:00+16юз275648 0.0 1014159
15 мая, сб
сб1500:00+13юз2564100 0.0 101490
03:00+12юз227093 0.0 101426
06:00+15юз2556100 0.0 1014211
09:00+18юз3442100 0.0 1014917
12:00+19ююз4543100 0.0 10131667
15:00+18ю3456100 0.0 10131294
18:00+18ю226179 0.0 1011990
21:00+14ююв2485100 0.0 1010155
16 мая, вс
вс1600:00+12ююв2396100 0.0 100972
03:00+11всв239590 0.0 100860
06:00+13в2688100 0.4 1008336
09:00+12всв3696100 8.4 1007302
12:00+13всв2597100 2.6 1008271
15:00+13всв3695100 4.6 1007381
18:00+13всв389599 3.0 1007285
21:00+12всв389797 5.5 1007367
17 мая, пн
пн1700:00+11всв3897100 0.4 1007388
03:00+11св3798100 0.6 1008280
06:00+10св3797100 0.1 1009296
09:00+10св3695100 0.3 1011356
12:00+10ссв3592100 0.0 1013444
15:00+9св2591100 0.0 1015444
18:00+9св2591100 0.0 1017384
21:00+8всв149299 0.0 1018203